| time (UTC) | temp C | wind direction | speed KPH | gust KPH | rain 1hr cm | rain 24hr cm | rain mn cm | humidity % | barometer mb |
| 20260505034606 | 15 | 189 | 3.2 | 8.0 | 0.00 | 0.00 | 0.00 | 57 | 955.2 |
| 20260505033047 | 15 | 193 | 1.6 | 12.9 | 0.00 | 0.00 | 0.00 | 56 | 955.2 |
| 20260505030100 | 16 | 172 | 1.6 | 6.4 | 0.00 | 0.00 | 0.00 | 55 | 955.4 |
| 20260505024606 | 16 | 183 | 3.2 | 9.7 | 0.00 | 0.00 | 0.00 | 54 | 955.3 |
| 20260505023049 | 16 | 157 | 1.6 | 12.9 | 0.00 | 0.00 | 0.00 | 53 | 955.5 |
| 20260505020108 | 16 | 172 | 3.2 | 11.3 | 0.00 | 0.00 | 0.00 | 51 | 955.6 |
| 20260505014558 | 16 | 163 | 1.6 | 4.8 | 0.00 | 0.00 | 0.00 | 51 | 955.6 |
| 20260505013056 | 16 | 161 | 1.6 | 8.0 | 0.00 | 0.00 | 0.00 | 50 | 955.2 |
| 20260505010112 | 17 | 185 | 1.6 | 8.0 | 0.00 | 0.00 | 0.00 | 49 | 955.2 |
| 20260505004631 | 17 | 164 | 1.6 | 4.8 | 0.00 | 0.00 | 0.00 | 48 | 955.0 |
| 20260505003101 | 17 | 185 | 1.6 | 8.0 | 0.00 | 0.00 | 0.00 | 47 | 954.9 |
| 20260505000014 | 18 | 155 | 1.6 | 9.7 | 0.00 | 0.00 | 0.00 | 45 | 954.6 |
| 20260504234506 | 18 | 181 | 3.2 | 19.3 | 0.00 | 0.00 | 0.00 | 44 | 954.6 |
| 20260504233005 | 19 | 163 | 3.2 | 12.9 | 0.00 | 0.00 | 0.00 | 43 | 954.6 |
| 20260504230014 | 20 | 202 | 1.6 | 9.7 | 0.00 | 0.00 | 0.00 | 40 | 954.3 |
| 20260504224511 | 21 | 161 | 1.6 | 12.9 | 0.00 | 0.00 | 0.00 | 39 | 954.4 |
| 20260504223010 | 22 | 180 | 3.2 | 9.7 | 0.00 | 0.00 | 0.00 | 37 | 954.5 |
| 20260504220059 | 23 | 204 | 0.0 | 12.9 | 0.00 | 0.00 | 0.00 | 36 | 954.3 |
| 20260504214557 | 23 | 257 | 1.6 | 9.7 | 0.00 | 0.00 | 0.00 | 34 | 954.4 |
| 20260504213102 | 23 | 202 | 3.2 | 12.9 | 0.00 | 0.00 | 0.00 | 32 | 954.4 |
| 20260504210050 | 23 | 181 | 3.2 | 11.3 | 0.00 | 0.00 | 0.00 | 35 | 954.6 |
| 20260504204543 | 22 | 267 | 1.6 | 12.9 | 0.00 | 0.00 | 0.00 | 37 | 954.7 |
| 20260504203040 | 22 | 198 | 4.8 | 19.3 | 0.00 | 0.00 | 0.00 | 36 | 954.9 |
| 20260504200039 | 21 | 215 | 4.8 | 14.5 | 0.00 | 0.00 | 0.00 | 38 | 955.3 |
| 20260504194539 | 21 | 240 | 6.4 | 27.4 | 0.00 | 0.00 | 0.00 | 37 | 955.5 |
| 20260504193045 | 21 | 117 | 0.0 | 8.0 | 0.00 | 0.00 | 0.00 | 38 | 955.7 |
| 20260504190058 | 21 | 240 | 11.3 | 25.7 | 0.00 | 0.00 | 0.00 | 37 | 955.8 |
| 20260504184602 | 21 | 217 | 9.7 | 22.5 | 0.00 | 0.00 | 0.00 | 37 | 955.8 |
| 20260504183053 | 21 | 248 | 4.8 | 22.5 | 0.00 | 0.00 | 0.00 | 38 | 955.9 |
| 20260504180015 | 21 | 198 | 6.4 | 22.5 | 0.00 | 0.00 | 0.00 | 42 | 956.2 |
| 20260504174512 | 20 | 221 | 4.8 | 14.5 | 0.00 | 0.00 | 0.00 | 41 | 956.3 |
| 20260504173015 | 20 | 252 | 3.2 | 17.7 | 0.00 | 0.00 | 0.00 | 41 | 956.4 |
| 20260504044533 | 8 | 22 | 0.0 | 1.6 | 0.00 | 0.00 | 0.00 | 57 | 959.1 |
| 20260504043026 | 8 | 22 | 0.0 | 0.0 | 0.00 | 0.00 | 0.00 | 57 | 959.0 |
| 20260504040021 | 8 | 15 | 0.0 | 0.0 | 0.00 | 0.00 | 0.00 | 54 | 959.0 |